Iridium Next SV164

operational
NORAD ID: 43577 Int'l Des: 2018-061 Owner: IRIDS Country: US Constellation: Iridium NEXT
LEOCIRCULARPOLAR

About Iridium Next SV164

Description loading...

Live Position

Loading 3D Globe...

Upcoming Passes

Altitude History

Altitude vs Time

uPlot chart will show altitude changes over time

Two-Line Element Set

1 43577U 18061J 25303.14137117 .00000014 00000-0 -21617-5 0 9998
2 43577 86.3988 152.9391 0001813 90.7212 269.4192 14.34217581380442
Epoch: Oct 30, 2025 • Age: 21 hours

Current Status

Altitude 781.0 km
Velocity 7.46 km/s
Sub-Earth Point -1.35°S, 71.83°W
Launch Date Jul 25, 2018
Age 7.2 years
Type communications

Technical Details

Classification Payload
Mass 860.00 kg
Dry Mass 700.00 kg
Total Mass 860.00 kg
Length 3.10 m
Diameter 1.50 m
Span 9.40 m
Shape Half Hex Prism+2 pan
Manufacturer NGISGA
Bus Type EliteBus
Phase Status In Orbit
Owner/State IRIDS/US

Large Constellations

Loading constellations...